Location: Castillon
(43.0896°N, 0.2156°E)
Time: 20:12:35
(UTC+00:00)

Meteor 2-10 Rocket - Pass Details

Date: 16 June 2021
Orbit: 733 x 885 km, 81.2° (Epoch: 01 August)

Event Time Altitude Azimuth Distance (km) Brightness Sun altitude
Rises 23:10:33 0° 344° (NNW) 3,226 8.2 -22.6°
Reaches altitude 10° 23:12:58 10° 339° (NNW) 2,279 7.1 -22.7°
Maximum altitude 23:17:52 50° 266° (W) 941 3.9 -22.8°
Enters shadow 23:18:56 42° 227° (SW) 1,042 3.9 -22.9°
